When you browse on this site, cookies collect data to enhance your experience and personalize the content and advertising you see.
Visit our Privacy Policy to learn more. By continuing to use the site, you agree to this use of cookies and data.
  • In Hungary
  • List of Countries
  • For 7 days
  • Water Temperature
  • Satellite Maps
  • Weather Map
  • News
  • Weather Widgets
  • user-avatar
    Login

    Hourly Weather Qala i Naw

    Today, 10 December, Monday

    Time Temperature Precipitation Wind Pressure Humidity
    00:00 +6°C° 0 mm 0 mps 681 mmHg 82%
    01:00 +6°C° 0 mm 0 mps 681 mmHg 84%
    02:00 +6°C° 0 mm 0 mps 681 mmHg 85%
    03:00 +5°C° 0 mm 0 mps 681 mmHg 86%
    04:00 +5°C° 0 mm 0 mps 681 mmHg 86%
    05:00 +5°C° 0 mm 0 mps 681 mmHg 86%
    06:00 +5°C° 0 mm 0 mps 681 mmHg 87%
    07:00 +4°C° 0 mm 0 mps 681 mmHg 88%
    08:00 +6°C° 0 mm 0 mps 682 mmHg 81%
    09:00 +8°C° 0 mm 1 mps 682 mmHg 74%
    10:00 +9°C° 0 mm 1 mps 682 mmHg 68%
    11:00 +10°C° 0 mm 1 mps 682 mmHg 64%
    12:00 +9°C° 0 mm 2 mps 682 mmHg 60%
    13:00 +10°C° 0 mm 2 mps 681 mmHg 56%
    14:00 +10°C° 0 mm 2 mps 681 mmHg 57%
    15:00 +10°C° 0 mm 2 mps 681 mmHg 58%
    16:00 +9°C° 0 mm 2 mps 681 mmHg 60%
    17:00 +9°C° 0 mm 2 mps 681 mmHg 64%
    18:00 +9°C° 0 mm 1 mps 682 mmHg 68%
    19:00 +8°C° 0 mm 1 mps 682 mmHg 73%
    20:00 +8°C° 0 mm 1 mps 682 mmHg 74%
    21:00 +8°C° 0 mm 1 mps 682 mmHg 76%
    22:00 +6°C° 0 mm 0 mps 682 mmHg 78%
    23:00 +6°C° 0 mm 0 mps 682 mmHg 78%

    Tomorrow, 11 December, Tuesday

    Time Temperature Precipitation Wind Pressure Humidity
    00:00 +6°C° 0 mm 0 mps 681 mmHg 78%
    01:00 +5°C° 0 mm 0 mps 681 mmHg 78%
    02:00 +5°C° 0 mm 0 mps 681 mmHg 78%
    03:00 +5°C° 0 mm 0 mps 681 mmHg 78%
    04:00 +5°C° 0 mm 0 mps 681 mmHg 77%
    05:00 +5°C° 0 mm 0 mps 681 mmHg 77%
    06:00 +4°C° 0 mm 0 mps 681 mmHg 76%
    07:00 +4°C° 0 mm 0 mps 681 mmHg 76%
    08:00 +6°C° 0 mm 0 mps 682 mmHg 67%
    09:00 +9°C° 0 mm 1 mps 682 mmHg 59%
    10:00 +10°C° 0 mm 1 mps 683 mmHg 50%
    11:00 +11°C° 0 mm 1 mps 682 mmHg 47%
    12:00 +12°C° 0 mm 2 mps 682 mmHg 44%
    13:00 +12°C° 0 mm 2 mps 682 mmHg 41%
    14:00 +12°C° 0 mm 2 mps 682 mmHg 42%
    15:00 +12°C° 0 mm 2 mps 682 mmHg 44%
    16:00 +12°C° 0 mm 2 mps 682 mmHg 45%
    17:00 +10°C° 0 mm 2 mps 682 mmHg 49%
    18:00 +10°C° 0 mm 1 mps 682 mmHg 54%
    19:00 +9°C° 0 mm 1 mps 682 mmHg 58%
    20:00 +9°C° 0 mm 1 mps 682 mmHg 57%
    21:00 +8°C° 0 mm 1 mps 682 mmHg 56%
    22:00 +8°C° 0 mm 1 mps 682 mmHg 55%
    23:00 +8°C° 0 mm 1 mps 682 mmHg 54%

    Day after tomorrow, 12 December, Wednesday

    Time Temperature Precipitation Wind Pressure Humidity
    00:00 +8°C° 0 mm 1 mps 682 mmHg 53%
    01:00 +7°C° 0 mm 1 mps 682 mmHg 52%
    02:00 +7°C° 0 mm 1 mps 682 mmHg 52%
    03:00 +7°C° 0 mm 1 mps 682 mmHg 51%
    04:00 +7°C° 0 mm 1 mps 682 mmHg 51%
    05:00 +6°C° 0 mm 2 mps 682 mmHg 50%
    06:00 +6°C° 0 mm 2 mps 682 mmHg 49%
    07:00 +6°C° 0 mm 2 mps 682 mmHg 49%
    08:00 +8°C° 0 mm 2 mps 683 mmHg 44%
    09:00 +10°C° 0 mm 2 mps 683 mmHg 39%
    10:00 +13°C° 0 mm 2 mps 683 mmHg 34%
    11:00 +14°C° 0 mm 2 mps 683 mmHg 32%
    12:00 +14°C° 0 mm 2 mps 683 mmHg 29%
    13:00 +15°C° 0 mm 2 mps 683 mmHg 27%
    14:00 +15°C° 0 mm 2 mps 683 mmHg 30%
    15:00 +14°C° 0 mm 1 mps 682 mmHg 32%
    16:00 +14°C° 0 mm 1 mps 682 mmHg 35%
    17:00 +13°C° 0 mm 1 mps 683 mmHg 37%
    18:00 +12°C° 0 mm 1 mps 683 mmHg 39%
    19:00 +10°C° 0 mm 2 mps 683 mmHg 41%
    20:00 +10°C° 0 mm 2 mps 683 mmHg 42%
    21:00 +9°C° 0 mm 2 mps 683 mmHg 42%
    22:00 +9°C° 0 mm 2 mps 683 mmHg 43%
    23:00 +9°C° 0 mm 3 mps 683 mmHg 43%

    13 December, Thursday

    Time Temperature Precipitation Wind Pressure Humidity
    00:00 +9°C° 0 mm 3 mps 683 mmHg 43%
    01:00 +9°C° 0 mm 3 mps 683 mmHg 43%
    02:00 +9°C° 0 mm 3 mps 683 mmHg 42%
    03:00 +8°C° 0 mm 3 mps 683 mmHg 42%
    04:00 +8°C° 0 mm 3 mps 683 mmHg 41%
    05:00 +8°C° 0 mm 3 mps 683 mmHg 41%
    06:00 +8°C° 0 mm 3 mps 683 mmHg 40%
    07:00 +8°C° 0 mm 3 mps 683 mmHg 40%
    08:00 +10°C° 0 mm 3 mps 683 mmHg 35%
    09:00 +12°C° 0 mm 3 mps 684 mmHg 30%
    10:00 +14°C° 0 mm 3 mps 684 mmHg 25%
    11:00 +16°C° 0 mm 3 mps 684 mmHg 22%
    12:00 +18°C° 0 mm 3 mps 683 mmHg 19%
    13:00 +19°C° 0 mm 2 mps 683 mmHg 17%
    14:00 +18°C° 0 mm 2 mps 683 mmHg 19%
    15:00 +17°C° 0 mm 2 mps 682 mmHg 21%
    16:00 +16°C° 0 mm 1 mps 682 mmHg 24%
    17:00 +15°C° 0 mm 2 mps 682 mmHg 25%
    18:00 +14°C° 0 mm 2 mps 682 mmHg 26%
    19:00 +13°C° 0 mm 2 mps 683 mmHg 27%
    20:00 +12°C° 0 mm 3 mps 683 mmHg 27%
    21:00 +11°C° 0 mm 3 mps 683 mmHg 27%
    22:00 +11°C° 0 mm 3 mps 683 mmHg 27%
    23:00 +11°C° 0 mm 3 mps 683 mmHg 27%

    14 December, Friday

    Time Temperature Precipitation Wind Pressure Humidity
    00:00 +11°C° 0 mm 3 mps 683 mmHg 27%
    01:00 +10°C° 0 mm 3 mps 683 mmHg 27%
    02:00 +10°C° 0 mm 3 mps 683 mmHg 27%
    03:00 +10°C° 0 mm 3 mps 683 mmHg 26%
    04:00 +9°C° 0 mm 3 mps 683 mmHg 26%
    05:00 +9°C° 0 mm 3 mps 683 mmHg 26%
    06:00 +9°C° 0 mm 2 mps 683 mmHg 26%
    07:00 +9°C° 0 mm 2 mps 683 mmHg 26%
    08:00 +12°C° 0 mm 2 mps 684 mmHg 23%
    09:00 +14°C° 0 mm 1 mps 685 mmHg 20%
    10:00 +16°C° 0 mm 1 mps 685 mmHg 17%
    11:00 +16°C° 0 mm 1 mps 685 mmHg 17%
    12:00 +17°C° 0 mm 2 mps 685 mmHg 17%
    13:00 +17°C° 0 mm 3 mps 685 mmHg 17%
    14:00 +16°C° 0 mm 3 mps 685 mmHg 20%
    15:00 +16°C° 0 mm 2 mps 685 mmHg 24%
    16:00 +15°C° 0 mm 2 mps 685 mmHg 27%
    17:00 +13°C° 0 mm 2 mps 685 mmHg 31%
    18:00 +12°C° 0 mm 1 mps 685 mmHg 34%
    19:00 +11°C° 0 mm 1 mps 685 mmHg 38%
    20:00 +10°C° 0 mm 1 mps 685 mmHg 39%
    21:00 +10°C° 0 mm 1 mps 685 mmHg 39%
    22:00 +10°C° 0 mm 1 mps 685 mmHg 40%
    23:00 +9°C° 0 mm 1 mps 684 mmHg 41%

    15 December, Saturday

    Time Temperature Precipitation Wind Pressure Humidity
    00:00 +9°C° 0 mm 1 mps 684 mmHg 42%
    01:00 +8°C° 0 mm 1 mps 683 mmHg 43%
    02:00 +8°C° 0 mm 1 mps 683 mmHg 42%
    03:00 +8°C° 0 mm 1 mps 683 mmHg 42%
    04:00 +8°C° 0 mm 1 mps 683 mmHg 41%
    05:00 +8°C° 0 mm 1 mps 683 mmHg 40%
    06:00 +8°C° 0 mm 1 mps 683 mmHg 38%
    07:00 +8°C° 0 mm 1 mps 683 mmHg 37%
    08:00 +10°C° 0 mm 1 mps 684 mmHg 32%
    09:00 +12°C° 0 mm 1 mps 684 mmHg 26%
    10:00 +15°C° 0 mm 1 mps 685 mmHg 21%
    11:00 +16°C° 0 mm 1 mps 685 mmHg 20%
    12:00 +17°C° 0 mm 2 mps 684 mmHg 19%
    13:00 +18°C° 0 mm 2 mps 684 mmHg 18%
    14:00 +17°C° 0 mm 2 mps 684 mmHg 20%
    15:00 +16°C° 0 mm 2 mps 684 mmHg 23%
    16:00 +16°C° 0 mm 2 mps 684 mmHg 25%
    17:00 +14°C° 0 mm 2 mps 685 mmHg 29%
    18:00 +13°C° 0 mm 2 mps 685 mmHg 32%
    19:00 +12°C° 0 mm 2 mps 685 mmHg 35%
    20:00 +10°C° 0 mm 2 mps 685 mmHg 42%
    21:00 +9°C° 0 mm 2 mps 686 mmHg 48%
    22:00 +8°C° 0 mm 2 mps 686 mmHg 54%
    23:00 +7°C° 0 mm 2 mps 686 mmHg 60%
    Show more